ENY357 KAVL-KDCA

Flight info

Callsign ENY357
Flight time 1h 1m
Altitude 33000
Route DCT MURKY DCT JOOLI Q56 KIWII DCT WAVES CAPSS4
Aircraft E175/M-VGDW/C

Departure

Time 2026-04-15 21:49
Airport Asheville Regional Airport (KAVL)

Arrival

Time 2026-04-15 22:50
Airport Ronald Reagan Washington National Airport (KDCA)
Time Latitude Longitude Altitude Speed Heading
2026-04-15 21:28 35.43484 -82.53878 2147 ft 0 kts 90°
2026-04-15 21:38 35.43484 -82.53883 2146 ft 3 kts 90°
2026-04-15 21:38 35.43484 -82.53906 2147 ft 3 kts 90°
2026-04-15 21:39 35.43484 -82.53929 2143 ft 3 kts 90°
2026-04-15 21:39 35.43484 -82.53932 2147 ft 0 kts 90°
2026-04-15 21:42 35.43485 -82.53926 2143 ft 1 kts 67°
2026-04-15 21:42 35.43489 -82.53924 2143 ft 1 kts 25°
2026-04-15 21:42 35.43493 -82.53925 2144 ft 1 kts 338°
2026-04-15 21:42 35.43516 -82.53953 2147 ft 8 kts 308°
2026-04-15 21:43 35.43544 -82.54027 2147 ft 10 kts 318°
2026-04-15 21:43 35.43617 -82.54064 2144 ft 12 kts 339°
2026-04-15 21:43 35.43706 -82.54104 2144 ft 14 kts 340°
2026-04-15 21:43 35.43765 -82.54131 2148 ft 8 kts 339°
2026-04-15 21:44 35.43777 -82.54137 2148 ft 0 kts 339°
2026-04-15 21:44 35.43790 -82.54143 2148 ft 5 kts 339°
2026-04-15 21:44 35.43842 -82.54167 2147 ft 10 kts 340°
2026-04-15 21:44 35.43923 -82.54202 2145 ft 14 kts 340°
2026-04-15 21:45 35.44026 -82.54247 2146 ft 17 kts 339°
2026-04-15 21:45 35.44150 -82.54307 2146 ft 21 kts 339°
2026-04-15 21:45 35.44294 -82.54370 2145 ft 23 kts 340°
2026-04-15 21:45 35.44449 -82.54438 2148 ft 25 kts 340°
2026-04-15 21:46 35.44592 -82.54503 2147 ft 17 kts 339°
2026-04-15 21:46 35.44660 -82.54550 2147 ft 8 kts 296°
2026-04-15 21:46 35.44662 -82.54562 2147 ft 0 kts 270°
2026-04-15 21:47 35.44656 -82.54587 2147 ft 9 kts 250°
2026-04-15 21:47 35.44622 -82.54654 2148 ft 8 kts 201°
2026-04-15 21:48 35.44587 -82.54644 2147 ft 0 kts 159°
2026-04-15 21:48 35.44573 -82.54638 2148 ft 19 kts 159°
2026-04-15 21:48 35.44155 -82.54448 2147 ft 108 kts 160°
2026-04-15 21:48 35.43574 -82.54187 2162 ft 158 kts 159°
2026-04-15 21:49 35.42436 -82.53695 2987 ft 181 kts 160°
2026-04-15 21:49 35.41165 -82.53180 3955 ft 206 kts 161°
2026-04-15 21:49 35.39935 -82.52073 4935 ft 240 kts 131°
2026-04-15 21:49 35.39244 -82.50215 5529 ft 238 kts 104°
2026-04-15 21:50 35.39236 -82.48163 6110 ft 246 kts 80°
2026-04-15 21:50 35.39936 -82.46205 6770 ft 261 kts 56°
2026-04-15 21:50 35.41118 -82.44413 7425 ft 276 kts 50°
2026-04-15 21:50 35.42412 -82.42632 8194 ft 286 kts 46°
2026-04-15 21:51 35.43764 -82.40811 8998 ft 292 kts 48°
2026-04-15 21:51 35.44901 -82.38747 9804 ft 297 kts 59°
2026-04-15 21:51 35.45847 -82.36490 10642 ft 299 kts 65°
2026-04-15 21:51 35.46654 -82.34107 11347 ft 306 kts 68°
2026-04-15 21:52 35.47387 -82.31630 12005 ft 313 kts 69°
2026-04-15 21:52 35.48115 -82.29077 12659 ft 322 kts 70°
2026-04-15 21:52 35.48785 -82.26416 13311 ft 332 kts 75°
2026-04-15 21:52 35.49332 -82.23620 13968 ft 342 kts 76°
2026-04-15 21:53 35.49878 -82.20721 14545 ft 354 kts 76°
2026-04-15 21:53 35.50431 -82.17728 15143 ft 365 kts 76°
2026-04-15 21:53 35.51000 -82.14651 15753 ft 374 kts 76°
2026-04-15 21:53 35.51580 -82.11496 16365 ft 382 kts 77°
2026-04-15 21:54 35.52171 -82.08287 16995 ft 389 kts 77°
2026-04-15 21:54 35.52772 -82.05022 17638 ft 395 kts 77°
2026-04-15 21:54 35.53380 -82.01710 18302 ft 400 kts 77°
2026-04-15 21:54 35.53993 -81.98364 18866 ft 405 kts 76°
2026-04-15 21:55 35.54607 -81.95018 19430 ft 409 kts 77°
2026-04-15 21:55 35.55233 -81.91591 20009 ft 413 kts 77°
2026-04-15 21:55 35.55865 -81.88132 20597 ft 417 kts 76°
2026-04-15 21:55 35.56502 -81.84636 21193 ft 420 kts 76°
2026-04-15 21:56 35.57143 -81.81114 21798 ft 423 kts 76°
2026-04-15 21:56 35.57786 -81.77575 22414 ft 426 kts 76°
2026-04-15 21:56 35.58431 -81.74018 23062 ft 428 kts 76°
2026-04-15 21:56 35.59078 -81.70447 23699 ft 429 kts 76°
2026-04-15 21:57 35.59726 -81.66860 24248 ft 430 kts 76°
2026-04-15 21:57 35.60372 -81.63271 24795 ft 431 kts 76°
2026-04-15 21:57 35.61022 -81.59671 25361 ft 431 kts 76°
2026-04-15 21:57 35.61660 -81.56115 25919 ft 431 kts 76°
2026-04-15 21:58 35.62306 -81.52514 26511 ft 430 kts 76°
2026-04-15 21:58 35.62948 -81.48928 27113 ft 430 kts 76°
2026-04-15 21:58 35.63591 -81.45333 27731 ft 428 kts 76°
2026-04-15 21:58 35.64228 -81.41761 28355 ft 427 kts 76°
2026-04-15 21:59 35.64861 -81.38207 28996 ft 424 kts 76°
2026-04-15 21:59 35.65489 -81.34670 29644 ft 422 kts 76°
2026-04-15 21:59 35.66112 -81.31164 30285 ft 419 kts 76°
2026-04-15 21:59 35.66730 -81.27671 30850 ft 415 kts 76°
2026-04-15 22:00 35.67340 -81.24223 31424 ft 411 kts 76°
2026-04-15 22:00 35.67946 -81.20789 31891 ft 411 kts 76°
2026-04-15 22:00 35.68552 -81.17357 32380 ft 409 kts 76°
2026-04-15 22:00 35.69151 -81.13946 32868 ft 408 kts 76°
2026-04-15 22:01 35.69760 -81.10486 33021 ft 417 kts 76°
2026-04-15 22:01 35.71002 -81.03388 33123 ft 438 kts 76°
2026-04-15 22:01 35.71651 -80.99669 33132 ft 449 kts 76°
2026-04-15 22:02 35.72313 -80.95874 33142 ft 459 kts 76°
2026-04-15 22:02 35.73678 -80.88013 33155 ft 479 kts 76°
2026-04-15 22:03 35.75091 -80.79844 33139 ft 496 kts 76°
2026-04-15 22:03 35.76542 -80.71424 33120 ft 510 kts 76°
2026-04-15 22:04 35.78002 -80.62908 33090 ft 506 kts 76°
2026-04-15 22:04 35.79453 -80.54409 33108 ft 506 kts 76°
2026-04-15 22:05 35.80895 -80.45929 33099 ft 505 kts 77°
2026-04-15 22:05 35.82322 -80.37497 33112 ft 506 kts 77°
2026-04-15 22:06 35.83759 -80.28965 33091 ft 505 kts 77°
2026-04-15 22:06 35.85173 -80.20532 33107 ft 505 kts 77°
2026-04-15 22:07 35.86589 -80.12048 33096 ft 505 kts 77°
2026-04-15 22:07 35.88000 -80.03557 33082 ft 505 kts 77°
2026-04-15 22:08 35.89404 -79.95065 33081 ft 505 kts 77°
2026-04-15 22:08 35.90811 -79.86563 33099 ft 505 kts 75°
2026-04-15 22:09 35.93323 -79.78544 33085 ft 499 kts 57°
2026-04-15 22:09 35.97410 -79.71701 33080 ft 494 kts 46°
2026-04-15 22:10 36.01606 -79.64946 33081 ft 496 kts 50°
2026-04-15 22:10 36.05627 -79.58084 33081 ft 496 kts 50°
2026-04-15 22:11 36.09659 -79.51168 33082 ft 496 kts 50°
2026-04-15 22:11 36.13696 -79.44232 33088 ft 496 kts 50°
2026-04-15 22:12 36.17728 -79.37293 33077 ft 496 kts 50°
2026-04-15 22:12 36.21746 -79.30365 33074 ft 495 kts 50°
2026-04-15 22:13 36.25761 -79.23427 33080 ft 495 kts 50°
2026-04-15 22:13 36.29746 -79.16528 33099 ft 495 kts 50°
2026-04-15 22:14 36.33748 -79.09586 33100 ft 494 kts 50°
2026-04-15 22:14 36.37745 -79.02639 33105 ft 495 kts 51°
2026-04-15 22:15 36.41738 -78.95684 33097 ft 495 kts 51°
2026-04-15 22:15 36.45732 -78.88713 33082 ft 495 kts 51°
2026-04-15 22:16 36.49719 -78.81740 33073 ft 495 kts 51°
2026-04-15 22:16 36.53715 -78.74736 33063 ft 496 kts 51°
2026-04-15 22:17 36.57782 -78.67879 33056 ft 495 kts 47°
2026-04-15 22:17 36.62506 -78.61719 33062 ft 492 kts 40°
2026-04-15 22:18 36.67431 -78.55812 33053 ft 491 kts 40°
2026-04-15 22:18 36.72370 -78.49907 33060 ft 492 kts 40°
2026-04-15 22:19 36.77309 -78.43989 33053 ft 492 kts 40°
2026-04-15 22:19 36.82247 -78.38060 33057 ft 493 kts 40°
2026-04-15 22:20 36.87181 -78.32123 33055 ft 493 kts 40°
2026-04-15 22:20 36.92111 -78.26181 33050 ft 488 kts 40°
2026-04-15 22:20 36.94504 -78.23289 32764 ft 471 kts 40°
2026-04-15 22:21 36.96831 -78.20480 32371 ft 462 kts 40°
2026-04-15 22:21 36.99154 -78.17674 31863 ft 465 kts 40°
2026-04-15 22:21 37.01470 -78.14869 31380 ft 462 kts 40°
2026-04-15 22:21 37.03764 -78.12090 30892 ft 457 kts 40°
2026-04-15 22:22 37.06038 -78.09333 30432 ft 453 kts 40°
2026-04-15 22:22 37.08264 -78.06631 29953 ft 450 kts 40°
2026-04-15 22:22 37.10530 -78.03878 29407 ft 445 kts 40°
2026-04-15 22:22 37.12740 -78.01193 28876 ft 441 kts 40°
2026-04-15 22:23 37.14908 -77.98554 28362 ft 438 kts 40°
2026-04-15 22:23 37.17082 -77.95907 27861 ft 439 kts 40°
2026-04-15 22:23 37.19335 -77.93168 27401 ft 463 kts 40°
2026-04-15 22:23 37.21677 -77.90305 26838 ft 470 kts 40°
2026-04-15 22:24 37.24010 -77.87453 26250 ft 465 kts 40°
2026-04-15 22:24 37.26311 -77.84641 25666 ft 460 kts 40°
2026-04-15 22:24 37.28593 -77.81851 25085 ft 452 kts 40°
2026-04-15 22:24 37.30803 -77.79141 24500 ft 436 kts 40°
2026-04-15 22:25 37.32945 -77.76520 23925 ft 423 kts 39°
2026-04-15 22:25 37.35023 -77.73974 23318 ft 412 kts 39°
2026-04-15 22:25 37.37068 -77.71469 22659 ft 410 kts 40°
2026-04-15 22:25 37.39100 -77.68971 22097 ft 408 kts 40°
2026-04-15 22:26 37.41124 -77.66483 21613 ft 405 kts 40°
2026-04-15 22:26 37.43132 -77.64010 21121 ft 402 kts 40°
2026-04-15 22:26 37.45120 -77.61562 20671 ft 397 kts 40°
2026-04-15 22:26 37.47093 -77.59132 20315 ft 395 kts 40°
2026-04-15 22:27 37.49048 -77.56720 19964 ft 393 kts 40°
2026-04-15 22:27 37.50981 -77.54336 19625 ft 390 kts 40°
2026-04-15 22:27 37.52911 -77.51951 19285 ft 388 kts 40°
2026-04-15 22:27 37.54834 -77.49576 18947 ft 386 kts 41°
2026-04-15 22:28 37.56815 -77.47334 18582 ft 379 kts 31°
2026-04-15 22:28 37.59078 -77.45704 18249 ft 372 kts 22°
2026-04-15 22:28 37.61441 -77.44395 17881 ft 369 kts 18°
2026-04-15 22:28 37.63835 -77.43283 17499 ft 364 kts 12°
2026-04-15 22:29 37.66278 -77.42469 17125 ft 363 kts 11°
2026-04-15 22:29 37.68718 -77.41697 16749 ft 360 kts 10°
2026-04-15 22:29 37.71142 -77.40949 16380 ft 357 kts 10°
2026-04-15 22:29 37.73548 -77.40207 16019 ft 355 kts 10°
2026-04-15 22:30 37.75942 -77.39469 15658 ft 353 kts 10°
2026-04-15 22:30 37.78321 -77.38734 15318 ft 351 kts 10°
2026-04-15 22:30 37.80687 -77.38003 15040 ft 350 kts 10°
2026-04-15 22:30 37.83046 -77.37273 14761 ft 349 kts 10°
2026-04-15 22:31 37.85400 -77.36542 14477 ft 347 kts 11°
2026-04-15 22:31 37.87740 -77.35811 14207 ft 346 kts 10°
2026-04-15 22:31 37.90076 -77.35098 13937 ft 345 kts 10°
2026-04-15 22:31 37.92405 -77.34381 13626 ft 343 kts 10°
2026-04-15 22:32 37.94725 -77.33668 13312 ft 342 kts 10°
2026-04-15 22:32 37.97000 -77.32967 13114 ft 340 kts 10°
2026-04-15 22:32 37.99306 -77.32259 13043 ft 342 kts 10°
2026-04-15 22:32 38.01613 -77.31545 12923 ft 343 kts 10°
2026-04-15 22:33 38.03932 -77.30847 12542 ft 340 kts
2026-04-15 22:33 38.06218 -77.30135 12164 ft 337 kts 10°
2026-04-15 22:33 38.08495 -77.29419 11797 ft 336 kts 10°
2026-04-15 22:33 38.10760 -77.28706 11428 ft 336 kts 10°
2026-04-15 22:34 38.13028 -77.27995 11069 ft 335 kts 10°
2026-04-15 22:34 38.15285 -77.27286 10772 ft 331 kts 10°
2026-04-15 22:34 38.17530 -77.26625 10885 ft 333 kts
2026-04-15 22:34 38.19782 -77.25880 10954 ft 336 kts 12°
2026-04-15 22:35 38.22022 -77.25048 10983 ft 336 kts 12°
2026-04-15 22:35 38.24270 -77.24201 10987 ft 337 kts 12°
2026-04-15 22:35 38.26507 -77.23354 10986 ft 336 kts 12°
2026-04-15 22:35 38.28730 -77.22510 10978 ft 336 kts 12°
2026-04-15 22:36 38.30976 -77.21660 10966 ft 336 kts 12°
2026-04-15 22:36 38.33217 -77.20819 10983 ft 336 kts 12°
2026-04-15 22:36 38.35465 -77.19973 10987 ft 337 kts 13°
2026-04-15 22:36 38.36951 -77.19397 10982 ft 337 kts 13°
2026-04-15 22:37 38.39221 -77.18520 10979 ft 337 kts 13°
2026-04-15 22:37 38.41437 -77.17665 10986 ft 337 kts 12°
2026-04-15 22:37 38.43684 -77.16798 10990 ft 337 kts 12°
2026-04-15 22:37 38.45928 -77.15931 10983 ft 338 kts 12°
2026-04-15 22:38 38.48176 -77.15062 10979 ft 337 kts 12°
2026-04-15 22:38 38.50432 -77.14191 10732 ft 339 kts 12°
2026-04-15 22:38 38.52682 -77.13319 10369 ft 335 kts 12°
2026-04-15 22:38 38.54901 -77.12450 10028 ft 334 kts 12°
2026-04-15 22:39 38.57130 -77.11595 9623 ft 332 kts 12°
2026-04-15 22:39 38.59310 -77.10758 9231 ft 323 kts 12°
2026-04-15 22:39 38.61439 -77.09938 8838 ft 315 kts 12°
2026-04-15 22:39 38.63520 -77.09136 8469 ft 309 kts 12°
2026-04-15 22:40 38.65566 -77.08364 8093 ft 305 kts 11°
2026-04-15 22:40 38.67606 -77.07684 7720 ft 302 kts
2026-04-15 22:40 38.69640 -77.07116 7360 ft 296 kts
2026-04-15 22:41 38.73636 -77.06686 6653 ft 284 kts 354°
2026-04-15 22:41 38.75572 -77.06999 6301 ft 277 kts 342°
2026-04-15 22:41 38.77388 -77.07677 6104 ft 265 kts 335°
2026-04-15 22:41 38.79048 -77.08518 6027 ft 246 kts 329°
2026-04-15 22:42 38.80493 -77.09560 6000 ft 234 kts 323°
2026-04-15 22:42 38.81806 -77.10743 5778 ft 227 kts 307°
2026-04-15 22:42 38.82444 -77.12507 5564 ft 217 kts 277°
2026-04-15 22:42 38.82741 -77.14392 5343 ft 216 kts 282°
2026-04-15 22:43 38.83154 -77.16217 5176 ft 210 kts 283°
2026-04-15 22:43 38.83595 -77.18026 5123 ft 215 kts 283°
2026-04-15 22:43 38.83763 -77.19910 5042 ft 213 kts 267°
2026-04-15 22:43 38.84167 -77.21735 4991 ft 221 kts 301°
2026-04-15 22:44 38.85415 -77.22922 4901 ft 234 kts 336°
2026-04-15 22:44 38.87029 -77.23370 4723 ft 237 kts 346°
2026-04-15 22:44 38.88649 -77.23653 4525 ft 238 kts 348°
2026-04-15 22:44 38.90283 -77.23893 4291 ft 235 kts 349°
2026-04-15 22:45 38.91903 -77.24125 4113 ft 233 kts 349°
2026-04-15 22:45 38.93526 -77.24142 4081 ft 240 kts 11°
2026-04-15 22:45 38.94976 -77.23097 4037 ft 244 kts 45°
2026-04-15 22:45 38.96038 -77.21470 4056 ft 227 kts 52°
2026-04-15 22:46 38.96945 -77.19912 4061 ft 215 kts 54°
2026-04-15 22:46 38.97460 -77.18122 4080 ft 213 kts 92°
2026-04-15 22:46 38.97182 -77.16287 4081 ft 209 kts 110°
2026-04-15 22:46 38.96627 -77.14608 3918 ft 206 kts 134°
2026-04-15 22:47 38.95520 -77.13536 3555 ft 192 kts 156°
2026-04-15 22:47 38.94375 -77.12739 3209 ft 188 kts 158°
2026-04-15 22:47 38.93274 -77.11845 3127 ft 191 kts 147°
2026-04-15 22:47 38.92284 -77.10663 2844 ft 197 kts 141°
2026-04-15 22:48 38.91364 -77.09354 2395 ft 196 kts 131°
2026-04-15 22:48 38.90651 -77.07877 1975 ft 187 kts 127°
2026-04-15 22:48 38.89878 -77.06586 1443 ft 178 kts 139°
2026-04-15 22:48 38.89018 -77.05599 1115 ft 157 kts 144°
2026-04-15 22:49 38.88201 -77.04742 685 ft 144 kts 146°
2026-04-15 22:49 38.87324 -77.04134 381 ft 139 kts 162°
2026-04-15 22:49 38.86443 -77.03895 153 ft 121 kts 175°
2026-04-15 22:49 38.85628 -77.03823 30 ft 106 kts 174°
2026-04-15 22:50 38.85019 -77.03762 18 ft 64 kts 176°
2026-04-15 22:50 38.84636 -77.03725 18 ft 45 kts 175°
2026-04-15 22:50 38.84442 -77.03718 18 ft 22 kts 193°
2026-04-15 22:50 38.84393 -77.03796 20 ft 7 kts 265°
2026-04-15 22:51 38.84393 -77.03801 20 ft 0 kts 265°
2026-04-15 22:51 38.84392 -77.03811 20 ft 8 kts 264°
2026-04-15 22:51 38.84389 -77.03869 23 ft 12 kts 265°
2026-04-15 22:51 38.84381 -77.04045 22 ft 20 kts 266°
2026-04-15 22:52 38.84401 -77.04113 24 ft 7 kts 345°
2026-04-15 22:52 38.84452 -77.04125 23 ft 8 kts 351°
2026-04-15 22:52 38.84518 -77.04130 23 ft 11 kts 19°
2026-04-15 22:52 38.84578 -77.04053 22 ft 14 kts 27°
2026-04-15 22:53 38.84677 -77.04012 20 ft 10 kts 24°
2026-04-15 22:53 38.84718 -77.03986 20 ft 12 kts 25°
2026-04-15 22:53 38.84826 -77.03946 17 ft 20 kts 357°
2026-04-15 22:53 38.84973 -77.03959 16 ft 22 kts 356°
2026-04-15 22:54 38.85127 -77.03974 16 ft 21 kts 355°
2026-04-15 22:54 38.85265 -77.03991 18 ft 18 kts 354°
2026-04-15 22:54 38.85328 -77.04049 20 ft 10 kts 264°
2026-04-15 22:54 38.85311 -77.04145 21 ft 12 kts 253°
2026-04-15 22:55 38.85299 -77.04224 21 ft 5 kts 295°
2026-04-15 22:55 38.85331 -77.04239 22 ft 6 kts
2026-04-15 22:55 38.85345 -77.04239 22 ft 0 kts